fecha-hora | temperatura | viento dirección-velocidad-rachas | humedad | presión

  • 28-10-2020 16:00:00 | 17.40°C | Sudoeste-21.00 km/h - 27.00 km/h | 75.00% | 995.20 hPa
  • 28-10-2020 15:00:00 | 17.10°C | Sudoeste-23.00 km/h - 41.00 km/h | 77.00% | 994.80 hPa
  • 28-10-2020 14:00:00 | 17.10°C | Sudoeste-24.00 km/h - 33.00 km/h | 78.00% | 994.90 hPa
  • 28-10-2020 13:00:00 | 16.80°C | Sudoeste-21.00 km/h - 27.00 km/h | 82.00% | 995.10 hPa
  • 28-10-2020 12:00:00 | 15.40°C | Sudoeste-23.00 km/h - 33.00 km/h | 84.00% | 994.90 hPa
  • 28-10-2020 11:00:00 | 14.60°C | Sudoeste-20.00 km/h - 31.00 km/h | 87.00% | 994.20 hPa
  • 28-10-2020 10:00:00 | 13.60°C | Sudoeste-24.00 km/h - 36.00 km/h | 87.00% | 993.60 hPa
  • 28-10-2020 09:00:00 | 13.10°C | Oeste-23.00 km/h - 29.00 km/h | 91.00% | 992.90 hPa
  • 28-10-2020 08:00:00 | 12.80°C | Oeste-22.00 km/h - 36.00 km/h | 91.00% | 992.00 hPa
  • 28-10-2020 07:00:00 | 12.90°C | Sudoeste-22.00 km/h - 32.00 km/h | 91.00% | 991.50 hPa
  • 28-10-2020 06:00:00 | 12.80°C | Sudoeste-20.00 km/h - 25.00 km/h | 88.00% | 991.00 hPa
  • 28-10-2020 05:00:00 | 13.40°C | Oeste-22.00 km/h - 27.00 km/h | 80.00% | 990.70 hPa
  • 28-10-2020 04:00:00 | 13.40°C | Oeste-21.00 km/h - 25.00 km/h | 77.00% | 990.70 hPa
  • 28-10-2020 03:00:00 | 13.40°C | Oeste-23.00 km/h - 32.00 km/h | 73.00% | 990.60 hPa
  • 28-10-2020 02:00:00 | 13.20°C | Oeste-26.00 km/h - 37.00 km/h | 77.00% | 990.30 hPa
  • 28-10-2020 01:00:00 | 13.30°C | Noroeste-22.00 km/h - 36.00 km/h | 90.00% | 990.60 hPa
  • 28-10-2020 00:00:00 | 13.60°C | Oeste-20.00 km/h - 36.00 km/h | 87.00% | 990.40 hPa
  • 27-10-2020 23:00:00 | 13.60°C | Oeste-24.00 km/h - 37.00 km/h | 86.00% | 989.90 hPa
  • 27-10-2020 22:00:00 | 14.10°C | Oeste-26.00 km/h - 36.00 km/h | 91.00% | 989.80 hPa
  • 27-10-2020 21:00:00 | 14.10°C | Oeste-23.00 km/h - 35.00 km/h | 95.00% | 989.10 hPa
  • 27-10-2020 20:00:00 | 14.10°C | Oeste-25.00 km/h - 31.00 km/h | 92.00% | 988.40 hPa
  • 27-10-2020 19:00:00 | 13.90°C | Oeste-25.00 km/h - 49.00 km/h | 92.00% | 987.90 hPa
  • 27-10-2020 18:00:00 | 13.90°C | Oeste-26.00 km/h - 34.00 km/h | 94.00% | 987.50 hPa
  • 27-10-2020 17:00:00 | 13.10°C | Noroeste-19.00 km/h - 40.00 km/h | 97.00% | 986.90 hPa
    • diseño web asturias Información sobre el estado de las mareas, altura de la marejada, temperatura del agua y otros datos de Gijón en Asturias.

      Surf Gijón